This demonstration page uses our WeatherBlox Daily Observations layout. Learn more.

Left ArrowRight Arrow

Hourly Observations for November 28, 2022

Temp ( °F °C ) Dew Point ( °F °C ) Humidity (%) Winds ( mph kmh ) Pressure ( in mb ) Visibility ( mi km ) Precip ( " mm )
12:54 am 00:54 Clear 23 -5 17 -8.3 78 78 SSE 3 6 29.87 1012 10 16 0.00 0.00
1:54 am 01:54 Clear 22 -5.6 16 -8.9 77 77 SSE 6 9 29.86 1011 10 16 0.00 0.00
2:54 am 02:54 Clear 22 -5.6 16 -8.9 77 77 S 5 7 29.85 1011 10 16 0.00 0.00
3:54 am 03:54 Clear 26 -3.3 18 -7.8 71 71 SSE 5 7 29.84 1011 10 16 0.00 0.00
4:54 am 04:54 Clear 23 -5 17 -8.3 78 78 Calm 29.82 1010 10 16 0.00 0.00
5:54 am 05:54 Clear 28 -2.2 21 -6.1 75 75 S 13 20 29.79 1009 10 16 0.00 0.00
6:54 am 06:54 Clear 26 -3.3 20 -6.7 77 77 S 10 17 29.80 1009 10 16 0.00 0.00
7:54 am 07:54 Sunny 32 0 23 -5 69 69 S 12 19 29.79 1009 10 16 0.00 0.00
8:54 am 08:54 Sunny 37 2.8 25 -3.9 61 61 S 13 20 29.78 1009 10 16 0.00 0.00
9:54 am 09:54 Sunny 42 5.6 26 -3.3 53 53 SSW 15 24 29.78 1009 10 16 0.00 0.00
10:54 am 10:54 Sunny 47 8.3 27 -2.8 45 45 SSW 20 31 29.77 1008 10 16 0.00 0.00
11:54 am 11:54 Sunny 53 11.7 27 -2.8 36 36 SW 22 35 29.74 1007 10 16 0.00 0.00
12:54 pm 12:54 Sunny 55 12.8 28 -2.2 35 35 SSW 18 30 29.70 1006 10 16 0.00 0.00
1:54 pm 13:54 Sunny 56 13.3 30 -1.1 37 37 SSW 18 30 29.68 1005 10 16 0.00 0.00
2:54 pm 14:54 Sunny 56 13.3 31 -0.6 38 38 S 12 19 29.66 1005 10 16 0.00 0.00
3:54 pm 15:54 Sunny 54 12.2 32 0 43 43 S 14 22 29.66 1004 10 16 0.00 0.00
4:54 pm 16:54 Sunny 49 9.4 32 0 52 52 S 12 19 29.67 1005 10 16 0.00 0.00
5:54 pm 17:54 Clear 42 5.6 30 -1.1 62 62 SSE 7 11 29.67 1005 10 16 0.00 0.00
6:54 pm 18:54 Clear 45 7.2 32 0 60 60 S 10 17 29.68 1005 10 16 0.00 0.00
7:54 pm 19:54 Clear 41 5 31 -0.6 67 67 S 7 11 29.68 1005 10 16 0.00 0.00
8:54 pm 20:54 Clear 43 6.1 32 0 65 65 SSE 6 9 29.67 1005 10 16 0.00 0.00
9:54 pm 21:54 Cloudy 46 7.8 33 0.6 60 60 ESE 6 9 29.65 1004 10 16 0.00 0.00
10:54 pm 22:54 Cloudy 45 7.2 32 0 60 60 ENE 7 11 29.63 1003 10 16 0.00 0.00
11:54 pm 23:54 Cloudy 44 6.7 31 -0.6 60 60 NE 7 11 29.60 1002 10 16 0.00 0.00

Powered by AerisWeather